This is the latest recevied weather packets stored in our database for station/object DL9NEE-10. If no packets are shown the sender has not sent any weather packets the latest 10 day(s).
| Time | Temp. | Humidity | Pressure | Rain* | Wind** | Luminosity | Snow |
|---|---|---|---|---|---|---|---|
| 1777432762 | 11.67° C | 40% | 1022.3 hPa | - | - | - | - |
| 1777431861 | 11.67° C | 40% | 1022.2 hPa | - | - | - | - |
| 1777430960 | 12.22° C | 40% | 1022.2 hPa | - | - | - | - |
| 1777430060 | 12.78° C | 40% | 1022 hPa | - | - | - | - |
| 1777429160 | 12.78° C | 40% | 1021.9 hPa | - | - | - | - |
| 1777428260 | 12.78° C | 40% | 1021.8 hPa | - | - | - | - |
| 1777426460 | 12.78° C | 41% | 1021.6 hPa | - | - | - | - |
| 1777425560 | 13.33° C | 41% | 1021.7 hPa | - | - | - | - |
| 1777424659 | 13.33° C | 40% | 1021.8 hPa | - | - | - | - |
| 1777423759 | 13.33° C | 41% | 1021.8 hPa | - | - | - | - |
| 1777422859 | 13.89° C | 41% | 1021.7 hPa | - | - | - | - |
| 1777421959 | 13.89° C | 41% | 1021.7 hPa | - | - | - | - |
| 1777421059 | 13.89° C | 41% | 1021.9 hPa | - | - | - | - |
| 1777420159 | 14.44° C | 41% | 1021.8 hPa | - | - | - | - |
| 1777419259 | 14.44° C | 41% | 1021.8 hPa | - | - | - | - |
| 1777418359 | 14.44° C | 41% | 1021.8 hPa | - | - | - | - |
| 1777417459 | 15° C | 41% | 1021.7 hPa | - | - | - | - |
| 1777416558 | 15.56° C | 41% | 1021.6 hPa | - | - | - | - |
| 1777415658 | 15.56° C | 41% | 1021.6 hPa | - | - | - | - |
| 1777414758 | 15.56° C | 41% | 1021.6 hPa | - | - | - | - |
| 1777413858 | 15.56° C | 41% | 1021.5 hPa | - | - | - | - |
| 1777412958 | 16.11° C | 41% | 1021.4 hPa | - | - | - | - |
| 1777412058 | 16.67° C | 41% | 1021.3 hPa | - | - | - | - |
| 1777411157 | 16.67° C | 40% | 1021.1 hPa | - | - | - | - |
| 1777410257 | 16.67° C | 40% | 1021.2 hPa | - | - | - | - |
* Rain since midnight (hover to see other rain measurements)
** Current wind speed in m/s (hover to see current wind gust speed)